Wind_Speed
25 24 23 23 21 19 17 16 16 17 17 21 22 22 21 20 20 18 16 15 14 16 18 19 17 15 13 14 15 17 18 18 18 19 21 24 27 29 31 34 35 38 39 38 41
27 26 26 24 23 20 19 16 16 17 21 24 23 25 23 20 19 17 16 14 14 16 18 17 16 13 13 14 16 17 17 18 18 20 23 24 26 29 32 35 36 35 41 42 49
28 27 27 26 24 22 20 19 18 19 26 25 24 25 25 20 18 17 16 14 16 17 17 15 14 13 13 15 16 16 17 18 19 22 23 25 27 30 32 36 37 35 41 50 54
29 29 28 28 26 25 22 21 21 25 29 27 27 27 27 22 17 16 15 15 16 16 15 13 11 12 13 14 15 16 17 18 21 23 23 25 29 32 36 37 34 37 44 49 50
31 30 29 28 28 29 27 27 28 30 30 29 28 28 27 22 18 16 14 15 16 15 13 10 10 12 13 13 15 17 17 18 21 22 22 25 30 34 38 38 35 38 43 45 42
31 31 30 29 29 29 30 28 30 28 26 29 31 29 26 21 17 15 14 15 14 12 10 8 10 11 11 13 15 17 17 19 21 22 23 25 29 34 36 37 36 37 40 40 38
33 33 32 31 29 28 27 27 28 30 30 31 29 27 24 20 16 14 13 13 12 10 7 7 9 9 11 13 15 17 17 19 21 22 23 26 31 32 34 35 34 36 32 39 35
34 33 31 31 31 30 30 31 33 33 31 31 29 26 20 19 15 13 11 11 9 7 6 7 8 9 11 13 15 17 18 19 20 22 24 28 31 31 32 31 30 37 28 31 31
41 40 38 39 38 38 40 39 38 36 33 31 28 24 18 17 14 11 9 9 6 5 6 6 6 8 10 13 15 19 20 20 20 22 24 27 30 29 30 28 30 39 21 24 31
44 43 43 43 40 40 41 40 38 34 33 31 28 22 18 14 12 10 8 6 4 4 5 5 5 7 10 13 16 20 21 21 22 24 26 28 29 29 29 26 30 39 21 27 22
47 48 47 45 42 40 36 35 35 33 32 30 23 20 16 14 11 8 7 4 3 5 5 3 5 7 10 13 17 19 20 22 23 22 25 26 28 30 29 28 26 35 20 24 25
51 49 48 46 44 39 35 34 31 31 30 25 20 18 14 13 10 8 6 3 4 6 4 2 5 7 11 15 19 20 22 22 22 22 25 27 26 30 35 31 20 32 20 18 23
50 48 44 43 39 36 34 32 30 29 28 23 18 17 14 12 10 8 6 5 6 5 2 2 3 7 11 17 20 20 20 21 21 22 23 24 21 30 36 39 23 31 37 21 28
48 44 43 41 37 35 34 31 29 28 25 21 18 15 13 12 10 8 8 7 7 4 3 1 2 6 12 17 17 19 21 22 21 21 20 22 21 29 36 40 39 28 28 35 27
46 42 42 40 36 36 33 31 28 28 23 20 17 15 15 13 12 10 10 10 6 6 4 2 1 6 12 15 18 23 23 23 22 19 20 21 19 25 33 36 39 38 33 29 30
42 41 39 35 36 35 32 30 28 27 23 16 16 15 14 14 12 11 11 10 8 8 6 4 1 4 10 15 17 23 24 22 20 18 18 20 16 20 26 30 33 36 39 38 39
40 39 36 35 34 34 32 30 29 26 22 20 17 14 14 14 12 12 12 11 11 9 8 4 1 4 9 13 17 20 21 20 20 19 18 19 16 14 19 25 27 31 34 36 39
39 38 37 37 35 34 33 33 29 24 25 20 17 17 16 15 14 14 14 13 13 10 7 5 2 5 9 14 16 20 22 24 23 21 19 18 19 17 12 15 19 23 27 27 30
41 41 40 40 38 37 35 34 26 26 24 23 21 17 14 14 15 16 15 15 15 12 8 6 3 3 7 12 16 17 20 23 22 21 20 19 18 17 15 12 15 15 19 20 22
44 44 43 43 42 39 37 32 28 27 25 26 23 19 16 16 17 17 16 16 16 13 10 7 4 2 5 10 13 16 19 19 22 22 20 18 17 18 17 14 8 9 10 13 14
48 47 45 45 45 43 39 32 30 28 27 27 23 21 19 19 19 18 18 19 18 16 11 10 5 2 3 7 12 15 17 19 21 19 20 19 18 16 17 16 14 8 5 6 9
52 50 47 45 46 44 38 33 32 30 29 27 25 24 22 22 21 20 20 21 19 17 14 13 9 5 1 4 7 13 15 17 21 21 18 19 16 16 16 15 15 15 14 8 6
54 51 49 47 47 43 38 36 35 33 30 29 27 25 23 23 22 22 21 21 20 18 16 14 11 9 4 5 5 7 9 14 18 19 21 16 17 16 15 14 14 15 17 16 11
58 55 53 50 49 44 41 38 38 36 33 31 28 26 25 25 24 24 23 24 22 20 18 18 13 11 8 6 8 10 8 11 15 15 15 17 18 13 16 19 17 16 16 18 20
63 58 55 54 45 40 40 41 41 37 34 33 31 28 28 28 26 24 24 25 24 23 20 20 17 13 12 11 11 14 13 11 12 14 14 14 19 18 17 18 20 20 20 19 20
66 62 57 54 47 43 45 43 41 39 35 31 30 32 31 28 26 25 25 26 26 23 22 22 19 16 15 14 13 15 17 17 18 16 12 12 18 19 20 21 20 21 24 25 22
66 62 64 58 52 50 48 42 39 38 38 34 36 37 33 30 29 29 29 29 27 26 24 23 22 19 16 16 17 16 18 21 21 22 20 17 16 19 22 23 24 25 25 23 27
Wind_Direction
248 250 253 256 255 254 261 268 281 298 315 323 331 326 320 313 311 312 310 311 317 322 325 330 331 335 333 332 328 325 321 321 323 323 319 319 318 321 328 320 311 303 311 314 312
247 249 251 252 254 254 263 269 280 295 309 313 324 325 319 312 313 316 315 314 316 322 325 330 333 334 332 330 328 325 322 326 327 325 325 323 326 328 321 317 311 303 305 305 303
247 247 249 250 251 256 260 268 278 290 305 308 317 324 316 304 306 312 314 313 318 323 328 332 335 337 332 330 327 327 329 333 332 332 328 332 333 330 325 315 310 302 298 309 311
247 248 249 251 252 256 262 270 279 288 297 300 311 318 316 300 301 307 311 314 319 324 328 334 337 332 330 331 331 333 335 339 337 336 335 337 335 332 325 325 318 310 313 313 310
244 248 250 252 254 260 266 273 281 288 292 294 306 312 312 298 297 304 310 315 320 323 328 336 337 332 334 330 339 341 342 341 339 340 341 339 332 331 330 332 325 322 323 318 319
246 249 252 255 259 262 270 276 281 284 285 293 300 307 306 295 296 302 307 314 318 321 329 340 335 331 329 342 349 348 344 339 343 346 348 341 335 337 339 332 323 326 326 325 330
247 249 252 256 260 263 268 274 278 283 287 294 300 302 300 291 290 296 302 311 314 319 330 339 329 325 341 354 355 346 342 343 350 350 349 348 346 348 346 338 333 331 334 346 338
246 250 254 257 259 265 271 276 282 283 287 289 293 296 292 287 287 294 302 308 311 319 337 330 323 335 353 358 354 345 350 350 353 353 352 352 354 356 350 340 342 342 359 358 340
245 250 256 260 264 269 273 277 279 281 283 287 287 288 281 281 284 289 294 302 304 323 327 315 329 347 357 358 350 352 355 351 356 356 357 357 359 358 352 351 354 352 332 355 359
250 254 259 260 265 271 269 274 275 276 281 281 280 275 274 271 272 279 283 286 299 316 300 311 333 350 357 355 353 352 359 357 1 360 3 2 3 1 358 1 7 360 355 1 23
251 256 259 258 261 268 266 271 273 272 277 276 271 263 262 260 260 260 264 272 293 290 283 308 344 353 354 355 356 350 3 3 3 3 5 9 6 8 9 5 3 359 16 43 35
252 253 255 256 259 262 264 269 270 270 272 265 258 257 252 252 248 254 256 255 269 262 279 320 349 349 354 7 357 360 1 3 3 9 10 13 12 16 18 18 12 13 20 33 13
247 248 251 251 255 260 260 261 264 266 264 256 250 247 240 238 242 247 242 243 247 248 239 357 338 348 14 22 5 9 6 6 7 14 17 15 20 31 28 26 34 22 25 52 63
242 245 246 248 252 254 255 257 257 257 253 248 242 238 234 231 235 233 234 237 230 220 200 243 333 359 32 30 21 26 19 14 12 18 22 19 33 47 40 36 42 34 28 34 49
242 242 245 246 246 248 249 250 248 249 245 240 237 230 229 232 229 228 231 229 214 195 198 183 18 30 39 32 29 31 25 17 17 23 26 28 44 55 49 44 42 46 46 43 44
237 240 241 241 242 240 239 239 242 241 236 234 227 226 227 222 218 224 229 218 198 199 198 213 109 52 46 39 34 32 31 23 25 29 33 34 55 55 52 50 51 49 51 57 57
232 235 236 233 231 232 231 234 235 235 232 227 225 218 217 217 219 217 212 206 196 198 201 205 37 31 40 38 41 37 35 34 33 33 36 38 36 34 53 57 55 54 56 62 62
230 230 227 226 224 227 229 230 230 227 225 223 223 223 227 226 220 215 207 198 198 203 201 164 123 46 43 40 42 39 34 31 31 29 30 31 38 33 40 55 67 63 65 61 67
227 226 223 223 225 228 229 228 221 223 225 226 227 226 222 223 218 215 209 200 201 202 207 174 132 67 44 39 32 30 39 33 28 28 22 26 27 35 39 55 68 66 72 65 65
227 226 224 224 224 226 228 224 217 220 220 226 226 227 225 217 213 213 212 202 207 208 206 195 162 112 43 32 34 25 26 34 26 25 24 17 20 19 27 38 57 71 64 67 64
224 225 226 224 224 224 224 219 218 219 221 224 227 224 223 217 216 213 209 206 207 211 211 197 200 182 42 33 39 27 14 20 25 17 17 16 14 18 12 14 19 16 16 45 49
223 222 223 224 224 222 220 217 219 217 221 223 222 224 221 215 216 216 209 210 206 216 218 203 208 215 243 20 39 31 10 13 10 9 12 7 12 6 6 4 357 351 349 341 334
220 221 221 221 221 220 218 216 219 221 220 224 222 225 218 215 216 216 213 216 209 216 226 209 209 225 256 321 352 14 28 8 8 8 354 5 1 7 355 352 349 343 342 336 323
216 219 219 220 221 219 217 217 220 222 222 222 224 224 221 219 212 214 215 220 215 216 227 225 214 224 251 281 305 329 347 355 355 6 358 346 353 357 342 334 336 330 334 329 324
216 218 219 221 223 222 218 218 222 223 223 223 225 225 222 219 217 216 218 222 221 221 225 227 221 221 238 268 292 307 315 320 332 343 349 344 346 338 334 328 320 319 319 321 321
216 221 219 221 221 217 214 217 221 224 226 225 226 227 224 221 219 220 222 225 229 229 231 231 228 223 234 255 275 293 307 308 312 316 321 333 335 335 330 320 305 309 313 319 316
213 220 223 223 220 219 217 218 223 226 225 222 225 224 222 220 221 221 223 226 227 227 229 234 238 236 237 253 269 283 294 300 302 303 304 309 317 325 328 324 312 307 304 305 306
Height
5822 5823 5824 5825 5825 5826 5827 5827 5828 5828 5827 5826 5824 5822 5820 5819 5818 5816 5815 5814 5813 5812 5811 5810 5808 5806 5805 5804 5802 5799 5797 5794 5792 5789 5787 5784 5780 5777 5773 5769 5764 5759 5755 5751 5749
5817 5818 5819 5820 5822 5822 5823 5823 5824 5824 5824 5823 5821 5819 5817 5815 5815 5813 5813 5811 5810 5809 5808 5806 5805 5804 5803 5801 5798 5796 5794 5791 5789 5786 5782 5779 5776 5771 5766 5760 5754 5750 5744 5738 5733
5813 5814 5815 5816 5817 5818 5819 5819 5820 5820 5820 5819 5818 5816 5815 5813 5812 5811 5810 5809 5807 5806 5804 5803 5803 5801 5800 5798 5796 5793 5790 5788 5785 5782 5778 5776 5771 5765 5759 5753 5746 5742 5737 5728 5719
5808 5809 5811 5812 5813 5814 5815 5815 5816 5816 5816 5816 5814 5813 5811 5810 5810 5808 5807 5806 5805 5804 5802 5800 5800 5799 5798 5795 5793 5790 5787 5785 5782 5778 5775 5771 5765 5759 5752 5745 5738 5731 5723 5714 5702
5802 5804 5806 5807 5808 5810 5810 5810 5811 5811 5811 5811 5810 5809 5807 5807 5806 5805 5804 5803 5802 5801 5799 5798 5798 5796 5795 5793 5790 5787 5785 5782 5779 5776 5772 5767 5760 5753 5745 5737 5729 5721 5712 5700 5690
5796 5799 5801 5802 5803 5805 5806 5806 5806 5807 5807 5806 5806 5804 5803 5803 5802 5801 5801 5800 5799 5798 5796 5796 5795 5794 5793 5791 5788 5785 5782 5779 5777 5773 5768 5763 5756 5748 5741 5731 5722 5715 5704 5692 5679
5790 5793 5795 5797 5798 5800 5800 5801 5801 5802 5801 5802 5801 5800 5799 5800 5798 5797 5798 5797 5796 5795 5794 5793 5793 5792 5791 5789 5786 5783 5780 5777 5774 5770 5765 5760 5753 5744 5736 5726 5717 5710 5699 5686 5673
5783 5787 5789 5791 5792 5794 5795 5796 5796 5796 5796 5796 5796 5796 5795 5795 5795 5794 5794 5794 5793 5792 5792 5791 5790 5790 5789 5787 5785 5781 5778 5774 5771 5767 5762 5756 5749 5740 5732 5723 5716 5706 5694 5683 5671
5776 5779 5781 5784 5786 5787 5788 5789 5790 5790 5790 5791 5791 5791 5791 5791 5792 5791 5791 5791 5791 5790 5790 5789 5789 5788 5787 5786 5783 5779 5777 5773 5769 5764 5760 5754 5747 5738 5730 5721 5712 5701 5691 5683 5670
5768 5771 5774 5776 5779 5780 5781 5783 5783 5784 5784 5785 5785 5787 5787 5787 5787 5787 5788 5788 5788 5788 5787 5787 5787 5787 5786 5785 5782 5779 5775 5770 5766 5763 5758 5751 5744 5737 5728 5720 5711 5700 5690 5682 5673
5759 5763 5766 5769 5771 5773 5774 5775 5778 5779 5778 5779 5780 5781 5782 5783 5784 5784 5785 5785 5785 5785 5786 5786 5786 5785 5785 5783 5780 5777 5773 5769 5765 5762 5757 5751 5744 5736 5728 5719 5711 5702 5693 5685 5678
5750 5754 5757 5760 5763 5765 5767 5768 5770 5772 5772 5773 5774 5776 5778 5779 5780 5781 5782 5783 5783 5783 5784 5785 5785 5785 5783 5781 5778 5773 5770 5767 5764 5761 5756 5751 5745 5737 5729 5722 5713 5705 5695 5690 5683
5740 5745 5748 5751 5755 5757 5759 5761 5763 5764 5767 5768 5770 5772 5774 5776 5777 5778 5779 5780 5780 5781 5782 5783 5784 5783 5781 5778 5775 5772 5770 5766 5763 5760 5756 5752 5747 5739 5732 5723 5716 5708 5702 5694 5689
5731 5736 5739 5742 5748 5749 5751 5754 5756 5758 5762 5765 5765 5769 5771 5772 5773 5774 5776 5777 5778 5779 5780 5781 5781 5781 5779 5777 5775 5772 5769 5765 5762 5760 5757 5753 5749 5741 5736 5729 5722 5715 5709 5702 5695
5721 5726 5730 5734 5738 5741 5745 5747 5749 5753 5757 5760 5762 5764 5766 5769 5770 5771 5772 5773 5775 5776 5779 5780 5778 5778 5777 5776 5773 5771 5767 5764 5761 5759 5757 5753 5749 5745 5740 5734 5728 5722 5716 5711 5707
5712 5717 5722 5726 5728 5733 5736 5740 5743 5749 5752 5755 5757 5759 5762 5764 5765 5767 5769 5771 5772 5774 5776 5777 5776 5775 5774 5773 5772 5769 5767 5764 5761 5759 5757 5754 5751 5747 5744 5740 5735 5730 5725 5719 5714
5703 5709 5714 5717 5720 5724 5730 5733 5737 5742 5748 5751 5753 5755 5758 5760 5761 5763 5765 5767 5770 5772 5773 5775 5775 5775 5775 5773 5770 5769 5768 5765 5763 5759 5757 5754 5751 5749 5747 5744 5740 5736 5732 5728 5724
5694 5701 5706 5709 5712 5718 5722 5725 5731 5737 5741 5744 5748 5751 5754 5756 5758 5760 5762 5763 5767 5770 5772 5773 5774 5774 5774 5773 5770 5767 5765 5763 5761 5758 5756 5755 5753 5751 5748 5747 5744 5741 5738 5736 5734
5685 5691 5697 5702 5706 5710 5715 5717 5726 5731 5736 5740 5743 5746 5749 5752 5755 5756 5759 5761 5764 5766 5770 5770 5772 5772 5773 5773 5771 5768 5764 5763 5762 5759 5756 5753 5753 5751 5749 5748 5746 5744 5742 5740 5738
5676 5683 5688 5692 5697 5702 5706 5714 5718 5724 5729 5734 5738 5742 5744 5747 5750 5753 5756 5758 5761 5764 5766 5768 5770 5770 5772 5772 5771 5768 5766 5763 5761 5759 5757 5755 5752 5750 5749 5748 5747 5745 5744 5742 5741
5665 5672 5678 5683 5689 5693 5699 5707 5713 5717 5723 5728 5733 5735 5739 5742 5746 5749 5752 5755 5757 5761 5763 5765 5767 5769 5769 5770 5768 5767 5765 5763 5761 5759 5757 5755 5754 5751 5749 5748 5747 5746 5744 5743 5743
5655 5662 5669 5675 5680 5685 5694 5701 5707 5710 5716 5722 5726 5730 5733 5736 5740 5744 5747 5751 5752 5758 5760 5761 5764 5766 5767 5766 5766 5765 5764 5762 5760 5759 5756 5755 5754 5752 5750 5748 5746 5745 5743 5743 5741
5645 5653 5659 5665 5670 5680 5688 5694 5698 5703 5709 5715 5719 5724 5727 5731 5736 5740 5742 5747 5749 5753 5757 5757 5760 5762 5764 5765 5764 5762 5761 5762 5759 5757 5755 5753 5754 5751 5749 5748 5746 5744 5743 5742 5740
5633 5641 5648 5655 5661 5671 5680 5687 5691 5696 5701 5708 5713 5717 5722 5726 5729 5734 5738 5742 5745 5747 5752 5755 5755 5758 5761 5761 5761 5761 5760 5758 5758 5757 5754 5752 5750 5749 5748 5747 5746 5743 5741 5741 5739
5620 5630 5641 5647 5657 5668 5674 5679 5683 5689 5695 5701 5706 5712 5715 5720 5724 5728 5732 5736 5740 5742 5745 5750 5750 5753 5754 5756 5757 5756 5755 5755 5755 5754 5753 5751 5750 5748 5746 5744 5742 5742 5740 5736 5737
5610 5621 5630 5639 5648 5654 5661 5668 5675 5681 5688 5695 5701 5704 5708 5715 5720 5724 5727 5731 5735 5737 5740 5744 5746 5746 5748 5750 5751 5751 5752 5752 5752 5750 5748 5747 5746 5745 5744 5741 5738 5736 5736 5737 5734
5597 5609 5620 5629 5637 5644 5652 5664 5670 5675 5680 5687 5691 5695 5702 5708 5712 5716 5719 5723 5728 5730 5733 5739 5741 5742 5742 5744 5745 5747 5746 5746 5746 5745 5745 5744 5742 5740 5739 5737 5736 5734 5732 5730 5729